Flag for Germany Weather past 2 weeks in Hannover, Lower Saxony, Germany

Now
77 °F

Clear.


Feels Like: 79 °F
Forecast: 56 / 70 °F
Wind: 9 mph from West

Location: Hannover

Current Time: Sep 1, 2015 at 12:06:34 AM

Latest Report: Aug 31, 2015 at 11:20 PM


Visibility: 10 mi

Pressure: 29.74 "Hg

Humidity: 57%

Dew point: 61 °F

Location of HannoverLocation

Historic Weather in Hannover — Graph

°F

Hannover temperature yesterday

Maximum temperature yesterday: 90 °F (at 4:20 PM)
Minimum temperature yesterday: 66 °F (at 2:50 AM)
Average temperature yesterday: 76 °F

Past Weeks' High & Low Weather Summary

 TemperatureHumidityPressure
High90 °F (Aug 31, 4:20 PM)100% (Aug 16, 11:20 PM)30.30 "Hg (Aug 16, 11:20 PM)
Low48 °F (Aug 29, 6:50 AM)30% (Aug 22, 1:20 PM)29.59 "Hg (Aug 24, 6:20 PM)
Average65 °F78%29.98 "Hg
* Reported Aug 16 11:20 PM — Aug 31 11:20 PM, Hannover, Weather by CustomWeather, © 2015

Note: Actual official high and low records may vary slightly from our data, if they occured in-between our weather recording intervals... More about our weather records

Advertising

Hannover weather history for previous 24 hours

 ConditionsComfort  
Time TempWeatherWind HumidityBarometerVisibility
11:20 PM
Mon, Aug 31
77 °FClear.9 mph57%29.74 "Hg10 mi
10:50 PM79 °FPassing clouds.8 mph48%29.74 "HgN/A
10:20 PM79 °FClear.8 mph48%29.74 "Hg10 mi
9:50 PM79 °FClear.8 mph45%29.71 "Hg10 mi
9:20 PM79 °FClear.7 mph51%29.71 "Hg10 mi
8:50 PM81 °FScattered clouds.7 mph51%29.74 "HgN/A
8:20 PM81 °FScattered clouds.5 mph54%29.71 "HgN/A
7:50 PM84 °FScattered clouds.10 mph48%29.71 "HgN/A
7:20 PM86 °FScattered clouds.12 mph43%29.71 "HgN/A
6:50 PM88 °FScattered clouds.12 mph40%29.71 "HgN/A
6:20 PM88 °FScattered clouds.14 mph38%29.74 "HgN/A
5:50 PM90 °FPartly sunny.14 mph36%29.74 "HgN/A
5:20 PM90 °FPartly sunny.14 mph38%29.74 "HgN/A
4:50 PM90 °FSunny.13 mph41%29.74 "Hg10 mi
4:20 PM90 °FPartly sunny.10 mph52%29.74 "HgN/A
3:50 PM86 °FPassing clouds.9 mph66%29.77 "HgN/A
3:20 PM86 °FSunny.9 mph66%29.80 "Hg10 mi
2:50 PM86 °FPassing clouds.10 mph66%29.80 "HgN/A
2:20 PM82 °FPartly sunny.12 mph66%29.83 "HgN/A
1:50 PM82 °FPartly sunny.12 mph66%29.83 "HgN/A
1:20 PM81 °FPartly sunny.13 mph66%29.86 "HgN/A
12:50 PM81 °FPartly sunny.12 mph66%29.86 "HgN/A
12:20 PM77 °FScattered clouds.8 mph79%29.89 "HgN/A
11:50 AM77 °FScattered clouds.7 mph79%29.92 "HgN/A
11:20 AM73 °FScattered clouds.5 mph94%29.92 "HgN/A
10:50 AM73 °FScattered clouds.6 mph100%29.92 "HgN/A
10:20 AM70 °FScattered clouds.5 mph100%29.92 "Hg5 mi
9:50 AM68 °FFog.5 mph100%29.92 "Hg1 mi
9:20 AM68 °FFog.1 mph100%29.95 "Hg0 mi
8:50 AM68 °FFog.3 mph100%29.95 "Hg0 mi
8:20 AM66 °FFog.2 mph100%29.95 "Hg0 mi
7:50 AM66 °FFog.3 mph100%29.95 "Hg0 mi
7:20 AM66 °FFog.2 mph100%29.95 "Hg0 mi
6:50 AM68 °FFog.2 mph100%29.95 "Hg0 mi
6:20 AM68 °FFog.1 mph100%29.95 "Hg0 mi
5:50 AM66 °FFog.6 mph100%29.95 "Hg0 mi
5:20 AM66 °FFog.5 mph100%29.95 "Hg0 mi
4:50 AM66 °FFog.1 mph100%29.95 "Hg0 mi
4:20 AM66 °FFog.5 mph100%29.98 "Hg2 mi
3:50 AM66 °FFog.7 mph100%29.98 "Hg1 mi
3:20 AM66 °FFog.5 mph100%29.98 "Hg1 mi
2:50 AM66 °FFog.5 mph100%29.98 "Hg0 mi
2:20 AM68 °FFog.5 mph100%29.98 "Hg0 mi
1:50 AM68 °FFog.1 mph100%29.98 "Hg0 mi
1:20 AM68 °FFog.2 mph100%29.98 "Hg1 mi
12:50 AM68 °FFog.2 mph100%29.98 "Hg1 mi
12:20 AM68 °FFog.5 mph100%29.98 "Hg0 mi
Weather by CustomWeather, © 2015

See weather overviewHow to use our weather pages